Location: Braunsdorf
(50.7357°N, 11.9136°E)
Time: 04:10:43
(UTC+00:00)

Cosmos 1992 Rocket - Pass Details

Date: 17 February 2020
Orbit: 759 x 765 km, 74.0° (Epoch: 02 April)

Event Time Altitude Azimuth Distance (km) Brightness Sun altitude
Exits shadow 03:55:38 60° 229° (SW) 872 3.9 -23.7°
Drops below altitude 10° 04:00:24 10° 172° (S) 2,295 6.5 -23.0°
Sets 04:02:47 0° 169° (SSE) 3,215 7.3 -22.6°
